Time,TemperatureF,DewpointF,PressureIn,WindDirection,WindDirectionDegrees,WindSpeedMPH,WindSpeedGustMPH,Humidity,HourlyPrecipIn,Conditions,Clouds,dailyrainin,SolarRadiationWatts/m^2,SoftwareType,DateUTC
2013-03-23 00:02:00,22.0,13.0,-100.00,NNE,28,4.0,7.0,69,0.00,,,0.07,0.000000,,2013-03-23 05:02:00,
2013-03-23 00:33:00,21.0,12.0,-100.00,NE,53,4.0,8.0,69,0.00,,,0.07,0.000000,,2013-03-23 05:33:00,
2013-03-23 00:42:00,21.0,12.0,-100.00,NE,53,4.0,8.0,69,0.00,,,0.07,0.000000,,2013-03-23 05:42:00,
2013-03-23 00:52:00,21.0,12.0,-100.00,NE,53,4.0,8.0,69,0.00,,,0.07,0.000000,,2013-03-23 05:52:00,
2013-03-23 01:02:00,21.0,12.0,-100.00,NE,53,4.0,8.0,69,0.00,,,0.07,0.000000,,2013-03-23 06:02:00,
2013-03-23 01:22:00,19.0,12.0,-100.00,NE,55,4.0,6.0,74,0.00,,,0.07,0.000000,,2013-03-23 06:22:00,
2013-03-23 01:32:00,19.0,12.0,-100.00,NE,55,4.0,6.0,74,0.00,,,0.07,0.000000,,2013-03-23 06:32:00,
2013-03-23 01:42:00,19.0,12.0,-100.00,NE,55,4.0,6.0,74,0.00,,,0.07,0.000000,,2013-03-23 06:42:00,
2013-03-23 01:52:00,19.0,12.0,-100.00,NE,55,4.0,6.0,74,0.00,,,0.07,0.000000,,2013-03-23 06:52:00,
2013-03-23 02:02:00,19.0,12.0,-100.00,NE,55,4.0,6.0,74,0.00,,,0.07,0.000000,,2013-03-23 07:02:00,
2013-03-23 02:22:00,18.0,11.0,-100.00,NE,53,4.0,9.0,75,0.00,,,0.07,0.000000,,2013-03-23 07:22:00,
2013-03-23 02:33:00,18.0,11.0,-100.00,NE,53,4.0,9.0,75,0.00,,,0.07,0.000000,,2013-03-23 07:33:00,
2013-03-23 02:42:00,18.0,11.0,-100.00,NE,53,4.0,9.0,75,0.00,,,0.07,0.000000,,2013-03-23 07:42:00,
2013-03-23 02:52:00,18.0,11.0,-100.00,NE,53,4.0,9.0,75,0.00,,,0.07,0.000000,,2013-03-23 07:52:00,
2013-03-23 03:02:00,18.0,11.0,-100.00,NE,53,4.0,9.0,75,0.00,,,0.07,0.000000,,2013-03-23 08:02:00,
2013-03-23 03:22:00,17.0,12.0,-100.00,NE,42,4.0,7.0,80,0.00,,,0.07,0.000000,,2013-03-23 08:22:00,
2013-03-23 03:32:00,17.0,12.0,-100.00,NE,42,4.0,7.0,80,0.00,,,0.07,0.000000,,2013-03-23 08:32:00,
2013-03-23 03:42:00,17.0,12.0,-100.00,NE,42,4.0,7.0,80,0.00,,,0.07,0.000000,,2013-03-23 08:42:00,
2013-03-23 03:52:00,17.0,12.0,-100.00,NE,42,4.0,7.0,80,0.00,,,0.07,0.000000,,2013-03-23 08:52:00,
2013-03-23 04:02:00,17.0,12.0,-100.00,NE,42,4.0,7.0,80,0.00,,,0.07,0.000000,,2013-03-23 09:02:00,
2013-03-23 04:33:00,16.0,11.0,-100.00,NE,42,4.0,7.0,82,0.00,,,0.07,0.000000,,2013-03-23 09:33:00,
2013-03-23 04:43:00,16.0,11.0,-100.00,NE,42,4.0,7.0,82,0.00,,,0.07,0.000000,,2013-03-23 09:43:00,
2013-03-23 04:53:00,16.0,11.0,-100.00,NE,42,4.0,7.0,82,0.00,,,0.07,0.000000,,2013-03-23 09:53:00,
2013-03-23 05:03:00,16.0,11.0,-100.00,NE,42,4.0,7.0,82,0.00,,,0.07,0.000000,,2013-03-23 10:03:00,
2013-03-23 05:34:00,14.0,11.0,-100.00,ENE,63,4.0,7.0,88,0.00,,,-99.99,0.000000,,2013-03-23 10:34:00,
2013-03-23 05:43:00,14.0,11.0,-100.00,ENE,63,4.0,7.0,88,0.00,,,-99.99,0.000000,,2013-03-23 10:43:00,
2013-03-23 05:52:00,14.0,11.0,-100.00,ENE,63,4.0,7.0,88,0.00,,,-99.99,0.000000,,2013-03-23 10:52:00,
2013-03-23 06:03:00,14.0,11.0,-100.00,ENE,63,4.0,7.0,88,0.00,,,-99.99,0.000000,,2013-03-23 11:03:00,
2013-03-23 06:32:00,11.0,8.0,-100.00,East,79,5.0,7.0,89,0.00,,,0.07,0.000000,,2013-03-23 11:32:00,
2013-03-23 06:42:00,11.0,8.0,-100.00,East,79,5.0,7.0,89,0.00,,,0.07,0.000000,,2013-03-23 11:42:00,
2013-03-23 06:52:00,11.0,8.0,-100.00,East,79,5.0,7.0,89,0.00,,,0.07,0.000000,,2013-03-23 11:52:00,
2013-03-23 07:02:00,11.0,8.0,-100.00,East,79,5.0,7.0,89,0.00,,,0.07,0.000000,,2013-03-23 12:02:00,
2013-03-23 07:22:00,10.0,8.0,-100.00,SE,126,4.0,7.0,91,0.00,,,0.07,1.000000,,2013-03-23 12:22:00,
2013-03-23 07:33:00,10.0,8.0,-100.00,SE,126,4.0,7.0,91,0.00,,,0.07,1.000000,,2013-03-23 12:33:00,
2013-03-23 07:43:00,10.0,8.0,-100.00,SE,126,4.0,7.0,91,0.00,,,0.07,1.000000,,2013-03-23 12:43:00,
2013-03-23 07:53:00,10.0,8.0,-100.00,SE,126,4.0,7.0,91,0.00,,,0.07,1.000000,,2013-03-23 12:53:00,
2013-03-23 08:03:00,10.0,8.0,-100.00,SE,126,4.0,7.0,91,0.00,,,0.07,1.000000,,2013-03-23 13:03:00,
2013-03-23 08:33:00,15.0,13.0,-100.00,SE,144,3.0,8.0,91,0.00,,,0.07,32.000000,,2013-03-23 13:33:00,
2013-03-23 08:43:00,15.0,13.0,-100.00,SE,144,3.0,8.0,91,0.00,,,0.07,32.000000,,2013-03-23 13:43:00,
2013-03-23 08:53:00,15.0,13.0,-100.00,SE,144,3.0,8.0,91,0.00,,,0.07,32.000000,,2013-03-23 13:53:00,
2013-03-23 09:03:00,15.0,13.0,-100.00,SE,144,3.0,8.0,91,0.00,,,0.07,32.000000,,2013-03-23 14:03:00,
2013-03-23 09:33:00,17.0,14.0,-100.00,ENE,74,3.0,5.0,88,0.00,,,0.07,120.000000,,2013-03-23 14:33:00,
2013-03-23 09:43:00,17.0,14.0,-100.00,ENE,74,3.0,5.0,88,0.00,,,0.07,120.000000,,2013-03-23 14:43:00,
2013-03-23 09:53:00,17.0,14.0,-100.00,ENE,74,3.0,5.0,88,0.00,,,0.07,120.000000,,2013-03-23 14:53:00,
2013-03-23 10:03:00,17.0,14.0,-100.00,ENE,74,3.0,5.0,88,0.00,,,0.07,120.000000,,2013-03-23 15:03:00,
2013-03-23 10:34:00,27.0,22.0,-100.00,East,86,4.0,5.0,82,0.00,,,0.07,342.000000,,2013-03-23 15:34:00,
2013-03-23 10:44:00,27.0,22.0,-100.00,East,86,4.0,5.0,82,0.00,,,0.07,342.000000,,2013-03-23 15:44:00,
2013-03-23 10:53:00,27.0,22.0,-100.00,East,86,4.0,5.0,82,0.00,,,0.07,342.000000,,2013-03-23 15:53:00,
2013-03-23 11:03:00,27.0,22.0,-100.00,East,86,4.0,5.0,82,0.00,,,0.07,342.000000,,2013-03-23 16:03:00,
2013-03-23 11:33:00,35.0,25.0,-100.00,SSW,204,3.0,5.0,66,0.00,,,0.07,503.000000,,2013-03-23 16:33:00,
2013-03-23 11:43:00,35.0,25.0,-100.00,SSW,204,3.0,5.0,66,0.00,,,0.07,503.000000,,2013-03-23 16:43:00,
2013-03-23 11:53:00,35.0,25.0,-100.00,SSW,204,3.0,5.0,66,0.00,,,0.07,503.000000,,2013-03-23 16:53:00,
2013-03-23 12:02:00,35.0,25.0,-100.00,SSW,204,3.0,5.0,66,0.00,,,0.07,503.000000,,2013-03-23 17:02:00,
2013-03-23 12:33:00,36.0,21.0,-100.00,ENE,75,3.0,6.0,55,0.00,,,0.06,573.000000,,2013-03-23 17:33:00,
2013-03-23 12:43:00,36.0,21.0,-100.00,ENE,75,3.0,6.0,55,0.00,,,0.06,573.000000,,2013-03-23 17:43:00,
2013-03-23 12:53:00,36.0,21.0,-100.00,ENE,75,3.0,6.0,55,0.00,,,0.06,573.000000,,2013-03-23 17:53:00,
2013-03-23 13:03:00,36.0,21.0,-100.00,ENE,75,3.0,6.0,55,0.00,,,0.06,573.000000,,2013-03-23 18:03:00,
2013-03-23 13:23:00,34.0,17.0,-100.00,NE,39,4.0,8.0,50,0.00,,,0.04,539.000000,,2013-03-23 18:23:00,
2013-03-23 13:32:00,34.0,17.0,-100.00,NE,39,4.0,8.0,50,0.00,,,0.04,539.000000,,2013-03-23 18:32:00,
2013-03-23 13:43:00,34.0,17.0,-100.00,NE,39,4.0,8.0,50,0.00,,,0.04,539.000000,,2013-03-23 18:43:00,
2013-03-23 13:53:00,34.0,17.0,-100.00,NE,39,4.0,8.0,50,0.00,,,0.04,539.000000,,2013-03-23 18:53:00,
2013-03-23 14:03:00,34.0,17.0,-100.00,NE,39,4.0,8.0,50,0.00,,,0.04,539.000000,,2013-03-23 19:03:00,
2013-03-23 14:23:00,34.0,18.0,-100.00,ENE,65,4.0,8.0,52,0.00,,,0.01,331.000000,,2013-03-23 19:23:00,
2013-03-23 14:33:00,34.0,18.0,-100.00,ENE,65,4.0,8.0,52,0.00,,,0.01,331.000000,,2013-03-23 19:33:00,
2013-03-23 14:43:00,34.0,18.0,-100.00,ENE,65,4.0,8.0,52,0.00,,,0.01,331.000000,,2013-03-23 19:43:00,
2013-03-23 14:53:00,34.0,18.0,-100.00,ENE,65,4.0,8.0,52,0.00,,,0.01,331.000000,,2013-03-23 19:53:00,
2013-03-23 15:02:00,34.0,18.0,-100.00,ENE,65,4.0,8.0,52,0.00,,,0.01,331.000000,,2013-03-23 20:02:00,
2013-03-23 15:33:00,35.0,18.0,-100.00,NE,36,3.0,10.0,49,0.00,,,-99.99,352.000000,,2013-03-23 20:33:00,
2013-03-23 15:43:00,35.0,18.0,-100.00,NE,36,3.0,10.0,49,0.00,,,-99.99,352.000000,,2013-03-23 20:43:00,
2013-03-23 15:53:00,35.0,18.0,-100.00,NE,36,3.0,10.0,49,0.00,,,-99.99,352.000000,,2013-03-23 20:53:00,
2013-03-23 16:02:00,35.0,18.0,-100.00,NE,36,3.0,10.0,49,0.00,,,-99.99,352.000000,,2013-03-23 21:02:00,
2013-03-23 16:23:00,35.0,17.0,-100.00,NNE,15,4.0,8.0,48,0.00,,,0.00,305.000000,,2013-03-23 21:23:00,
2013-03-23 16:33:00,35.0,17.0,-100.00,NNE,15,4.0,8.0,48,0.00,,,0.00,305.000000,,2013-03-23 21:33:00,
2013-03-23 16:43:00,35.0,17.0,-100.00,NNE,15,4.0,8.0,48,0.00,,,0.00,305.000000,,2013-03-23 21:43:00,
2013-03-23 16:54:00,35.0,17.0,-100.00,NNE,15,4.0,8.0,48,0.00,,,0.00,305.000000,,2013-03-23 21:54:00,
2013-03-23 17:03:00,35.0,17.0,-100.00,NNE,15,4.0,8.0,48,0.00,,,0.00,305.000000,,2013-03-23 22:03:00,
2013-03-23 17:23:00,33.0,17.0,-100.00,NNE,28,4.0,10.0,51,0.00,,,0.00,192.000000,,2013-03-23 22:23:00,
2013-03-23 17:33:00,33.0,17.0,-100.00,NNE,28,4.0,10.0,51,0.00,,,0.00,192.000000,,2013-03-23 22:33:00,
2013-03-23 17:43:00,33.0,17.0,-100.00,NNE,28,4.0,10.0,51,0.00,,,0.00,192.000000,,2013-03-23 22:43:00,
2013-03-23 17:53:00,33.0,17.0,-100.00,NNE,28,4.0,10.0,51,0.00,,,0.00,192.000000,,2013-03-23 22:53:00,
2013-03-23 18:02:00,33.0,17.0,-100.00,NNE,28,4.0,10.0,51,0.00,,,0.00,192.000000,,2013-03-23 23:02:00,
2013-03-23 18:33:00,31.0,16.0,-100.00,NE,41,4.0,9.0,53,0.00,,,0.00,88.000000,,2013-03-23 23:33:00,
2013-03-23 18:43:00,31.0,16.0,-100.00,NE,41,4.0,9.0,53,0.00,,,0.00,88.000000,,2013-03-23 23:43:00,
2013-03-23 18:52:00,31.0,16.0,-100.00,NE,41,4.0,9.0,53,0.00,,,0.00,88.000000,,2013-03-23 23:52:00,
2013-03-23 19:02:00,31.0,16.0,-100.00,NE,41,4.0,9.0,53,0.00,,,0.00,88.000000,,2013-03-24 00:02:00,
2013-03-23 19:33:00,30.0,16.0,-100.00,NNE,31,3.0,7.0,56,0.00,,,0.00,32.000000,,2013-03-24 00:33:00,
2013-03-23 19:42:00,30.0,16.0,-100.00,NNE,31,3.0,7.0,56,0.00,,,0.00,32.000000,,2013-03-24 00:42:00,
2013-03-23 19:52:00,30.0,16.0,-100.00,NNE,31,3.0,7.0,56,0.00,,,0.00,32.000000,,2013-03-24 00:52:00,
2013-03-23 20:02:00,30.0,16.0,-100.00,NNE,31,3.0,7.0,56,0.00,,,0.00,32.000000,,2013-03-24 01:02:00,
2013-03-23 20:33:00,28.0,15.0,-100.00,North,8,1.0,6.0,57,0.00,,,0.00,3.000000,,2013-03-24 01:33:00,
2013-03-23 20:43:00,28.0,15.0,-100.00,North,8,1.0,6.0,57,0.00,,,0.00,3.000000,,2013-03-24 01:43:00,
2013-03-23 20:53:00,28.0,15.0,-100.00,North,8,1.0,6.0,57,0.00,,,0.00,3.000000,,2013-03-24 01:53:00,
2013-03-23 21:02:00,28.0,15.0,-100.00,North,8,1.0,6.0,57,0.00,,,0.00,3.000000,,2013-03-24 02:02:00,
2013-03-23 21:32:00,28.0,16.0,-100.00,NNE,29,3.0,7.0,61,0.00,,,0.00,0.000000,,2013-03-24 02:32:00,
2013-03-23 21:43:00,28.0,16.0,-100.00,NNE,29,3.0,7.0,61,0.00,,,0.00,0.000000,,2013-03-24 02:43:00,
2013-03-23 21:52:00,28.0,16.0,-100.00,NNE,29,3.0,7.0,61,0.00,,,0.00,0.000000,,2013-03-24 02:52:00,
2013-03-23 22:02:00,28.0,16.0,-100.00,NNE,29,3.0,7.0,61,0.00,,,0.00,0.000000,,2013-03-24 03:02:00,
2013-03-23 22:33:00,27.0,15.0,-100.00,NNW,345,2.0,7.0,60,0.00,,,0.00,0.000000,,2013-03-24 03:33:00,
2013-03-23 22:43:00,27.0,15.0,-100.00,NNW,345,2.0,7.0,60,0.00,,,0.00,0.000000,,2013-03-24 03:43:00,
2013-03-23 22:53:00,27.0,15.0,-100.00,NNW,345,2.0,7.0,60,0.00,,,0.00,0.000000,,2013-03-24 03:53:00,
2013-03-23 23:02:00,27.0,15.0,-100.00,NNW,345,2.0,7.0,60,0.00,,,0.00,0.000000,,2013-03-24 04:02:00,
2013-03-23 23:33:00,26.0,16.0,-100.00,NE,47,2.0,5.0,64,0.00,,,0.00,0.000000,,2013-03-24 04:33:00,
2013-03-23 23:43:00,26.0,16.0,-100.00,NE,47,2.0,5.0,64,0.00,,,0.00,0.000000,,2013-03-24 04:43:00,
2013-03-23 23:53:00,26.0,16.0,-100.00,NE,47,2.0,5.0,64,0.00,,,0.00,0.000000,,2013-03-24 04:53:00,